Wind_Gust
7 4 4 5 5 6 7 6 5 5 7 7 8 4 3 4 4 4 5 4 4 6 6 5 4 4 3 3 4 5 5 6 6 7 6 7 7 7 10 9 8 7 10 10 11 12 11 11 11 11 11 10 8 8 7 10 12 12 13 13 12 11 11 11 11 10 10 10 10 10 10 9 10 10 9 10 10 9 10 11 11 11 12 12 13
6 5 5 5 5 6 7 6 6 6 6 7 7 4 4 4 4 4 5 4 4 5 5 7 6 5 3 3 3 6 5 7 8 8 7 7 7 6 9 9 8 7 7 9 11 12 10 11 11 10 11 11 11 10 8 8 12 13 13 13 13 12 11 10 10 10 10 9 9 8 9 9 9 9 9 9 9 9 10 10 10 11 12 12 13
5 6 5 6 5 6 6 6 6 8 8 7 6 6 4 4 4 4 4 3 3 4 5 6 6 5 4 4 4 4 6 5 6 7 8 7 6 5 6 8 7 6 5 6 7 10 10 10 10 10 10 11 11 10 9 7 9 13 13 13 13 13 12 11 10 10 9 8 8 8 8 8 8 8 8 8 8 9 9 9 9 9 10 11 11
6 5 6 5 5 6 4 5 5 6 7 8 7 5 4 4 4 4 4 3 3 4 4 4 6 6 5 5 4 3 5 5 7 8 7 8 8 6 5 5 6 6 5 5 5 7 9 10 11 10 11 11 11 10 10 10 9 11 13 13 13 12 12 12 11 10 10 9 9 8 7 7 7 7 7 6 7 8 8 8 9 8 9 10 10
4 7 8 6 4 6 4 4 6 7 7 7 6 5 4 3 3 4 4 5 4 4 4 3 6 6 6 6 6 6 3 6 5 7 9 9 8 8 6 5 6 4 5 6 6 6 6 9 9 10 10 10 11 11 11 11 11 9 8 13 12 12 13 12 11 11 11 10 9 9 8 7 7 7 7 6 6 7 7 7 7 7 7 9 10
5 6 6 5 4 4 5 4 4 6 8 7 6 5 4 4 4 5 6 5 3 3 3 4 5 4 5 5 5 5 3 5 5 5 5 8 7 7 7 6 5 5 6 5 7 6 4 5 9 9 10 11 11 11 12 12 10 10 11 12 13 13 12 13 12 11 11 11 11 10 9 9 8 7 7 7 6 6 6 6 7 6 7 8 9
3 5 5 4 4 3 4 4 5 6 7 6 5 4 3 4 5 4 4 4 4 4 5 5 4 5 6 6 6 6 5 4 5 5 5 4 5 5 7 7 6 6 6 6 3 5 5 4 7 7 10 12 11 11 12 12 12 11 13 11 12 13 13 12 12 12 12 12 12 11 11 10 10 9 8 7 7 7 6 6 6 6 6 7 7
4 5 4 4 6 6 6 5 5 6 6 6 4 3 5 5 5 4 4 4 4 5 4 5 5 5 5 6 6 7 6 5 4 5 6 6 5 5 5 6 6 6 6 6 6 5 4 5 6 6 7 11 10 11 11 12 12 12 13 13 14 14 13 13 13 13 13 13 13 12 12 12 11 10 11 10 8 8 7 7 7 7 6 6 6
6 5 6 4 5 5 5 5 5 5 5 5 4 5 5 5 4 4 3 4 4 5 5 4 4 5 6 6 7 8 7 6 3 4 6 6 6 5 5 6 6 8 8 8 7 7 6 6 6 6 6 6 9 12 12 13 14 14 14 15 14 13 13 14 13 14 14 14 14 13 13 12 11 12 12 11 10 9 8 8 8 7 7 7 7
5 6 5 7 5 4 5 5 5 5 5 5 4 5 5 5 5 3 4 4 4 5 5 5 4 5 7 7 6 7 7 7 4 5 6 6 6 6 7 7 7 8 7 7 7 8 8 8 8 8 7 6 7 10 13 13 14 14 14 15 15 14 13 13 16 15 15 15 15 14 13 13 13 12 13 12 12 11 10 10 9 9 8 8 8
6 6 7 7 7 7 6 5 5 5 4 4 4 3 5 5 5 4 5 5 4 4 5 8 5 5 7 7 7 7 6 6 6 7 6 5 5 5 5 6 6 7 8 8 8 8 8 8 8 8 9 8 8 9 12 13 14 15 15 15 15 15 14 15 15 16 16 17 16 15 15 14 13 13 13 13 13 12 12 11 10 10 9 9 8
7 8 7 5 5 6 7 6 5 5 4 3 3 4 3 5 6 3 4 5 5 5 9 8 6 7 6 6 7 8 7 6 6 6 5 6 5 4 4 4 6 7 8 7 8 8 8 7 7 8 8 8 9 8 9 11 10 11 15 15 15 14 15 16 15 16 16 16 17 16 15 15 14 15 14 14 14 14 13 12 12 11 11 10 9
8 8 7 8 6 7 8 6 5 4 3 4 3 2 3 5 5 3 3 3 2 5 8 5 9 7 6 6 7 8 8 8 8 7 7 6 5 4 4 3 3 5 6 7 7 7 7 8 8 8 8 8 8 9 10 9 10 11 12 14 16 16 15 16 17 17 16 16 17 17 15 16 16 16 15 15 15 16 15 14 13 12 12 11 11
8 8 7 8 8 8 6 6 5 4 4 4 4 3 2 4 6 4 3 4 8 4 7 5 5 10 6 6 7 6 7 9 9 9 9 7 6 6 5 5 5 4 3 5 6 6 6 6 6 6 5 8 10 10 8 9 9 10 10 11 15 17 16 16 17 18 17 16 16 18 16 16 16 16 15 15 15 15 15 15 14 14 13 13 12
6 7 9 8 10 9 8 7 7 6 5 4 4 4 4 3 5 5 5 2 3 4 6 3 5 6 10 10 6 5 6 7 7 7 9 9 8 7 6 5 5 5 4 4 4 5 6 5 4 6 6 10 8 10 9 7 10 11 11 11 14 14 17 16 17 18 17 15 15 18 15 17 16 16 16 16 15 15 15 14 15 15 15 14 14
6 6 6 8 10 10 9 8 7 5 5 4 4 3 4 3 3 5 5 3 4 4 6 9 9 10 5 6 5 5 4 5 5 7 9 8 8 8 8 7 7 6 6 7 7 7 8 7 7 7 7 8 8 7 9 10 11 11 11 12 11 11 16 17 17 17 17 15 13 16 14 16 16 16 16 16 15 15 15 15 15 15 16 16 16
6 6 6 8 7 8 9 8 7 5 6 6 5 3 4 4 2 4 4 4 4 4 5 7 10 7 12 9 7 5 9 5 6 4 8 7 7 8 8 9 10 9 7 8 9 11 12 12 8 10 10 12 8 6 5 9 12 10 7 5 7 8 12 15 17 19 18 18 18 17 15 17 17 16 16 14 14 14 15 15 15 16 16 16 16
6 6 7 6 8 7 7 8 7 7 6 6 5 5 4 4 4 5 5 4 3 5 4 8 6 9 8 8 12 9 10 5 4 8 7 4 7 7 7 10 11 11 9 9 10 11 8 9 8 9 10 12 9 11 9 12 11 9 7 9 8 11 11 10 16 18 19 18 17 17 16 16 17 16 16 15 15 16 17 17 16 17 18 18 18
7 7 7 7 8 7 8 7 7 7 6 8 7 5 4 4 5 6 5 6 5 4 4 4 5 8 8 8 7 7 6 11 8 5 5 4 5 6 7 10 9 10 11 10 8 8 8 8 6 6 8 7 8 10 10 7 12 14 11 5 6 6 9 12 14 19 21 21 15 16 17 20 19 16 16 17 18 19 18 18 18 18 19 19 19
8 7 7 7 8 8 8 8 9 7 8 8 7 5 5 6 6 5 7 7 8 9 7 4 3 4 5 6 7 7 7 6 7 10 9 11 5 6 5 8 12 12 10 10 10 9 7 4 7 8 8 7 6 6 6 12 14 15 12 10 10 9 8 10 15 17 16 16 14 16 17 20 24 18 17 17 18 16 20 20 20 20 20 20 21
6 7 6 6 7 8 7 9 10 8 8 9 8 8 7 6 6 7 8 8 5 4 5 5 5 4 4 8 6 7 7 8 7 8 8 9 5 6 6 5 11 16 13 11 11 9 9 10 9 9 8 6 6 6 5 4 3 4 4 9 9 11 8 10 12 12 11 10 17 21 23 21 20 22 21 19 20 20 22 21 21 21 20 20 21
6 5 7 6 7 7 8 8 7 7 7 9 8 9 7 8 6 6 6 9 7 6 8 6 5 6 6 6 5 4 7 8 9 9 12 10 10 5 7 10 15 13 12 15 14 14 13 12 13 14 14 13 12 9 7 5 4 6 6 11 10 8 7 7 11 12 11 13 14 17 18 20 19 18 21 20 20 21 23 22 23 24 24 24 23
7 7 6 5 6 6 8 7 7 7 8 8 7 8 6 8 7 8 8 9 9 9 10 8 8 8 8 6 7 6 5 7 4 8 6 7 9 8 7 7 10 16 13 9 13 13 13 13 14 14 14 14 14 15 15 14 11 11 9 8 7 6 3 7 8 8 7 13 12 14 14 15 17 17 16 18 21 18 18 22 26 27 25 25 25
7 7 5 5 7 9 7 8 8 8 8 7 7 7 6 6 8 8 9 7 6 9 9 9 8 10 9 8 9 8 9 8 5 5 7 6 9 8 8 7 10 10 4 7 10 14 15 15 13 13 13 13 13 12 12 13 15 16 12 14 14 13 11 10 12 12 9 7 4 9 11 12 11 12 15 17 18 17 20 20 24 25 23 24 25
6 8 3 3 5 8 6 7 7 6 6 6 5 5 6 7 8 8 8 7 6 8 11 7 7 11 10 7 8 9 9 5 6 9 8 9 9 9 5 5 10 7 7 6 11 9 13 15 14 13 13 14 13 13 12 12 13 14 12 11 17 17 17 17 15 12 10 8 6 6 8 11 13 13 11 12 14 15 17 16 15 12 10 14 21
7 6 3 2 4 4 6 7 5 5 5 5 5 4 6 8 7 9 8 6 8 10 10 8 9 7 6 11 9 10 8 6 7 9 8 8 9 8 8 9 7 7 6 10 9 7 10 13 13 13 14 14 13 13 13 13 13 14 13 11 15 19 19 19 17 15 13 12 9 7 6 8 10 10 11 12 10 7 6 7 9 11 12 14 18
7 3 3 5 5 6 5 7 6 5 6 6 6 6 6 8 8 8 7 6 9 10 8 8 10 9 9 10 10 10 9 8 9 9 8 8 8 6 10 14 9 9 9 8 9 13 6 6 13 16 14 13 14 14 14 14 13 17 14 14 14 19 20 20 19 19 17 16 13 11 10 9 8 8 9 10 11 10 10 11 10 9 9 12 15
2 4 3 5 5 6 6 6 5 3 3 5 5 6 6 9 7 8 8 4 11 10 8 10 9 8 8 6 11 9 7 8 9 9 10 8 10 8 9 9 15 11 6 11 11 11 9 9 8 14 14 14 14 13 13 15 20 16 14 15 16 16 20 22 23 22 23 23 21 19 17 16 14 13 11 10 11 11 10 8 9 10 10 10 12
4 3 5 4 5 5 7 6 5 3 4 3 4 4 4 6 8 8 8 6 9 9 8 10 7 8 8 8 9 8 7 7 8 9 9 9 9 9 8 10 9 14 8 8 7 8 9 11 12 13 13 12 14 13 16 17 18 18 16 16 17 17 20 23 25 24 23 23 23 22 21 21 19 18 17 13 11 11 12 10 8 7 9 11 11
6 3 4 4 3 5 5 5 5 3 3 3 3 4 4 6 5 7 6 7 9 6 6 9 7 8 8 8 7 9 6 10 10 8 10 11 11 10 10 8 8 12 8 9 7 4 6 7 10 13 12 12 12 13 13 15 16 18 17 16 17 17 18 21 22 23 22 22 22 22 22 21 21 20 20 16 14 13 12 12 11 8 8 9 10
6 5 5 5 5 4 4 3 3 3 3 3 3 4 3 5 3 6 4 6 9 7 3 6 4 7 8 8 7 8 7 10 9 10 8 10 10 10 10 10 10 10 11 8 8 5 5 8 7 6 10 8 12 10 13 13 14 17 14 13 15 16 16 17 19 21 20 21 21 21 22 21 21 21 19 18 19 18 14 14 16 14 11 8 8
5 5 5 5 5 5 3 3 2 1 2 2 4 5 4 4 5 5 3 5 6 6 3 3 6 7 8 8 6 8 7 9 9 8 9 8 8 11 10 11 9 8 9 10 11 7 3 6 5 7 9 8 10 13 12 12 14 12 12 12 13 12 15 13 13 17 17 18 19 19 20 20 21 21 21 21 20 20 20 18 16 15 13 12 10
4 4 5 5 4 4 3 3 3 3 2 1 1 4 4 4 2 3 5 5 7 3 5 3 3 5 8 8 7 6 6 10 8 8 9 8 9 10 9 10 10 6 9 9 9 6 4 3 5 8 8 6 12 12 12 11 12 12 10 10 11 12 13 13 12 12 16 16 16 17 17 18 19 18 19 19 19 19 19 18 17 15 14 13 12
6 5 4 4 4 2 1 2 2 2 1 2 2 3 5 5 4 4 6 7 6 6 4 5 4 4 7 8 6 6 4 10 7 9 9 8 9 10 8 10 9 8 4 9 7 7 5 4 7 5 8 6 10 11 13 13 12 9 13 12 11 13 13 13 14 13 14 13 15 15 15 16 17 16 16 17 16 16 16 16 16 14 13 12 12
6 6 7 7 4 3 1 1 2 3 4 3 2 3 5 5 6 6 6 7 8 9 8 8 8 6 6 6 7 7 6 9 6 7 6 8 7 10 8 7 9 7 6 7 8 8 7 5 4 7 9 9 10 11 11 8 8 8 10 12 11 12 12 12 12 12 10 11 12 13 14 15 15 15 15 15 15 14 14 15 15 14 12 11 12
8 5 6 7 7 5 4 1 1 3 5 4 4 4 5 5 7 6 6 8 8 8 9 10 10 10 9 8 7 8 7 9 8 7 6 7 8 8 8 6 7 8 7 7 7 7 5 8 6 8 8 8 8 7 10 7 9 9 10 9 6 9 11 12 12 13 11 10 9 11 12 13 14 15 15 15 15 14 14 14 14 13 11 11 12
7 8 7 7 8 7 5 4 3 4 5 5 4 3 4 6 8 8 8 8 9 10 10 9 9 10 10 10 10 9 9 9 8 8 8 8 8 9 9 7 8 6 7 7 7 8 9 8 6 5 8 7 6 6 10 13 11 7 7 9 6 8 9 8 9 11 8 7 7 9 11 12 13 14 14 14 14 13 14 14 14 13 12 11 13
5 5 6 5 7 8 7 7 7 8 7 6 5 5 5 5 8 9 9 9 9 9 8 9 9 9 11 11 10 10 11 11 11 9 9 9 9 9 10 9 8 8 9 7 7 8 9 8 6 7 6 9 9 8 11 12 13 15 13 9 4 6 11 12 10 11 11 9 8 11 8 10 12 13 13 13 13 12 13 13 13 13 12 12 14
8 7 6 7 4 5 7 6 5 5 8 8 8 8 7 7 9 10 10 11 12 9 9 9 9 9 8 9 10 12 13 12 11 11 10 8 8 9 10 10 9 9 9 7 7 8 8 7 6 6 6 5 7 10 9 9 9 10 15 20 17 6 9 14 17 10 7 7 5 6 10 11 12 13 13 13 13 13 13 12 12 12 12 13 14
5 4 3 4 5 3 2 4 7 7 6 6 6 9 9 8 10 12 13 12 12 11 8 9 9 11 12 10 11 12 13 13 11 9 11 12 9 9 8 9 9 9 9 8 8 7 7 6 6 4 6 6 9 5 8 7 8 6 11 10 15 22 20 13 10 17 9 7 11 12 8 10 9 10 9 9 11 13 13 11 11 13 14 14 14
6 6 6 6 5 3 3 4 5 4 4 5 5 5 6 7 7 12 12 11 12 11 9 9 9 10 11 11 12 12 11 11 12 10 9 10 12 11 8 8 8 9 8 7 8 7 5 5 4 4 6 7 6 8 12 10 11 11 11 8 11 11 15 18 14 8 7 11 12 12 15 14 18 15 13 12 12 11 11 11 11 13 14 15 14
5 5 4 4 4 5 6 5 4 4 7 4 3 2 6 11 9 8 9 11 10 9 9 8 8 8 10 11 12 12 14 13 13 13 13 12 8 10 13 9 8 8 7 7 6 4 4 4 5 6 9 9 8 6 6 6 7 8 9 9 13 13 11 13 12 8 7 10 19 20 15 10 14 16 13 15 12 11 13 13 14 16 15 15 14
5 4 2 6 7 6 6 6 7 6 6 7 4 7 12 8 6 9 8 8 7 7 7 8 9 9 8 7 5 6 7 5 8 10 9 9 8 8 8 6 4 9 9 7 5 6 4 3 4 4 5 8 8 5 6 7 6 7 10 10 12 14 16 19 25 18 10 17 21 20 21 12 13 17 16 15 14 12 12 15 13 17 15 13 13
6 5 6 8 7 6 5 5 6 7 4 4 5 9 11 8 7 8 6 7 6 6 6 7 8 7 7 6 7 6 6 9 10 12 10 12 13 13 13 12 12 11 7 7 8 5 5 4 5 6 5 6 6 6 6 7 9 9 8 9 10 11 15 16 15 18 19 15 20 21 21 10 12 15 16 13 14 14 16 16 16 17 16 13 13
5 4 7 6 8 7 6 5 7 7 6 2 5 6 5 2 5 6 7 6 6 6 6 6 6 6 6 6 6 6 8 14 14 12 13 14 14 17 15 14 13 11 11 12 8 6 9 6 5 5 6 5 5 6 5 6 5 10 10 10 10 10 11 12 15 17 18 14 14 16 22 18 13 13 17 17 14 12 15 11 16 18 17 13 12
8 7 6 5 7 6 5 5 5 5 5 5 7 7 7 5 2 3 4 3 2 3 4 5 6 6 6 7 7 6 7 10 11 13 13 14 13 12 11 10 9 10 10 10 9 8 6 6 7 4 5 6 5 5 6 4 7 11 10 12 9 12 11 13 13 16 16 13 13 17 20 15 13 16 17 16 14 13 14 14 17 18 17 14 12
7 9 7 5 4 5 5 4 3 2 4 8 9 9 7 4 2 3 6 7 7 7 8 8 6 3 6 7 8 9 9 9 8 12 15 13 12 11 11 9 9 8 8 8 7 7 7 6 6 5 5 6 6 7 8 7 8 10 9 12 13 13 15 13 12 12 13 10 10 11 18 15 15 17 16 17 15 15 15 12 16 17 16 13 12
8 9 9 8 6 6 6 4 4 4 7 9 9 8 4 4 6 7 8 9 9 9 10 9 9 9 8 10 12 11 10 10 9 12 12 13 12 12 11 9 7 7 7 5 4 4 6 6 5 5 4 5 5 7 8 8 8 8 9 9 9 9 10 12 15 11 12 9 10 15 17 15 11 16 21 19 16 16 14 14 13 17 14 11 11
8 8 7 5 3 4 3 3 4 1 4 8 7 5 4 8 7 8 9 10 10 11 11 10 10 10 9 10 12 13 12 11 9 12 11 11 12 12 10 8 7 7 6 5 4 3 3 2 1 2 4 5 6 7 8 9 9 7 7 8 10 7 11 17 16 13 15 11 13 10 12 19 12 15 22 18 18 19 16 15 14 9 11 11 12
8 5 6 8 6 4 4 2 2 4 1 5 4 5 5 5 7 10 9 11 10 10 10 10 10 10 10 13 11 12 13 11 10 12 11 12 11 10 9 8 7 7 6 5 5 4 2 2 3 3 3 3 4 6 7 8 9 5 5 10 10 8 13 14 22 20 21 15 13 6 14 20 17 13 20 23 19 14 12 12 13 9 7 9 14
8 6 5 9 6 6 4 2 5 5 4 5 5 4 6 8 9 9 11 11 11 8 9 10 9 10 10 10 11 10 10 10 11 11 10 10 10 9 9 9 8 7 3 4 6 7 9 10 10 11 11 11 10 10 10 11 10 9 6 8 8 8 13 16 17 21 22 12 7 6 23 23 20 18 18 30 29 20 13 10 8 15 17 14 12
Wind_Speed
4 3 3 3 2 3 4 3 1 2 2 3 4 2 1 2 2 2 2 2 2 3 3 3 3 3 2 2 2 3 3 3 3 3 3 4 3 4 7 7 6 5 7 7 6 7 6 6 7 6 7 6 5 4 5 7 9 9 8 8 8 7 8 8 7 6 6 6 6 5 5 5 6 6 6 6 6 7 8 8 8 9 9 10 11
3 3 3 3 2 3 4 3 3 3 3 1 3 2 1 1 2 2 3 2 3 2 3 3 3 3 2 2 1 3 3 4 4 4 4 4 4 3 6 6 5 5 4 6 7 7 7 6 7 6 7 6 7 6 5 6 9 10 9 9 8 8 7 7 7 7 6 6 5 5 5 5 5 5 5 6 6 6 6 7 8 9 9 9 10
2 3 3 3 3 3 3 3 3 4 4 4 3 3 1 1 2 2 2 1 1 2 2 3 3 2 2 2 2 2 3 3 3 4 4 4 3 2 2 5 5 4 3 4 4 7 6 6 6 6 6 7 6 6 5 3 6 10 10 9 9 8 8 8 8 7 7 6 5 4 4 4 4 4 5 4 5 6 6 6 6 6 7 8 9
3 2 3 3 3 3 1 2 3 3 3 4 3 2 2 2 1 2 2 1 1 2 2 1 3 3 2 2 2 1 2 3 3 4 4 4 4 3 2 2 4 5 4 4 4 5 5 6 6 6 7 7 7 6 6 6 6 8 10 10 10 9 8 8 8 7 7 7 6 5 4 4 4 3 4 4 4 5 5 5 6 6 6 7 8
2 4 4 3 2 2 2 2 2 3 3 4 3 2 1 1 1 2 2 2 2 2 1 1 3 3 3 3 3 2 1 3 3 3 4 5 4 4 3 2 3 4 5 4 5 5 4 5 6 6 6 5 7 7 7 7 7 6 6 9 9 9 9 8 8 7 7 7 7 6 5 5 4 4 3 3 4 4 4 4 4 5 5 6 6
3 4 3 3 2 2 2 1 1 3 3 3 2 2 1 1 1 2 2 2 2 1 1 2 3 2 3 3 3 2 0 3 3 3 3 2 3 4 4 3 2 2 3 4 5 5 3 3 7 6 6 7 7 7 7 8 7 6 7 8 10 10 9 9 8 8 7 7 7 7 7 6 5 5 4 4 4 4 4 4 4 3 4 5 6
1 3 2 3 2 1 1 1 1 2 3 2 2 1 1 1 1 1 1 1 2 2 2 3 3 2 3 3 3 3 2 1 2 2 2 2 3 2 3 3 3 2 2 3 2 4 4 2 5 5 7 8 7 6 8 8 7 7 8 7 9 10 10 9 9 9 9 8 7 7 7 7 7 6 6 5 5 4 4 4 4 3 4 4 5
2 3 2 2 3 3 2 2 3 2 2 2 2 1 1 1 1 1 2 1 2 3 2 3 2 2 2 3 3 4 3 2 1 2 2 3 3 3 2 2 3 3 3 3 3 3 4 4 4 5 6 8 7 7 7 9 8 8 8 10 9 10 9 10 10 10 10 10 9 9 8 8 8 7 8 7 6 6 5 5 5 4 4 4 4
3 3 2 2 3 3 2 2 2 2 2 2 1 2 2 2 1 1 1 2 2 3 2 1 1 2 2 3 3 3 3 2 1 2 2 3 3 2 3 3 3 5 4 4 3 3 4 6 5 5 5 5 7 8 8 9 9 9 9 10 10 10 9 10 10 10 10 11 10 10 9 9 9 9 8 8 7 7 6 6 6 5 5 4 5
4 4 3 2 2 2 1 2 2 2 2 2 1 2 2 2 2 1 1 2 1 3 3 2 1 2 3 3 3 3 3 3 2 2 2 3 3 3 3 3 3 4 4 3 3 4 4 5 7 7 6 6 6 8 9 9 9 9 9 9 11 11 9 9 11 11 11 11 11 11 10 10 10 9 9 9 9 8 8 7 7 6 6 5 5
4 4 4 4 4 3 2 2 2 2 1 1 1 1 2 2 2 1 2 2 2 1 2 3 2 2 3 3 3 3 2 3 3 3 3 2 2 2 2 3 3 4 4 4 4 4 4 4 4 4 5 7 6 7 9 9 9 9 10 10 9 11 10 10 11 12 12 12 11 11 11 11 10 10 10 10 9 9 9 8 7 7 7 6 6
3 2 1 2 2 3 3 2 2 2 1 0 1 1 1 2 3 1 2 3 3 2 3 2 3 4 3 3 3 4 4 3 3 3 3 3 2 1 2 1 3 4 4 3 4 4 4 3 3 4 3 5 7 6 7 7 7 8 10 11 10 10 11 10 10 11 12 11 12 12 11 11 11 11 10 10 10 10 9 9 8 8 7 7 7
3 3 2 2 3 3 3 3 2 1 0 1 1 1 1 2 3 2 1 2 1 1 3 2 4 3 3 4 4 4 4 5 5 4 4 3 2 2 1 1 1 2 3 3 3 3 3 4 4 3 2 2 2 5 6 6 7 8 9 10 12 12 11 11 11 10 11 11 11 12 11 10 10 10 11 10 10 10 10 10 9 9 9 8 8
4 3 3 4 4 3 2 2 2 1 1 1 1 1 0 2 3 2 2 1 3 0 2 2 1 4 1 3 3 2 4 5 5 5 4 3 3 3 3 2 2 2 1 1 2 2 3 2 2 1 1 3 5 4 4 4 5 7 7 8 11 12 12 10 10 10 10 10 10 12 10 10 10 10 10 10 10 10 10 10 10 10 10 10 9
4 4 4 4 5 4 3 3 3 2 2 1 1 1 1 1 3 3 2 0 1 1 3 1 1 2 5 2 2 2 2 3 3 3 4 4 3 3 3 2 2 2 2 1 1 1 2 0 1 3 2 5 1 3 2 2 5 9 9 9 11 11 11 10 9 9 9 9 9 11 9 10 10 11 11 11 11 10 10 10 10 11 11 11 11
3 4 4 4 5 5 4 3 3 2 2 1 1 1 1 1 1 3 3 1 1 1 3 4 2 2 2 1 0 1 1 1 1 3 4 4 4 4 4 3 3 3 3 3 3 3 4 2 3 3 3 4 4 2 2 2 5 5 4 5 8 8 7 8 12 12 9 9 9 11 9 11 11 11 11 11 11 11 11 11 11 11 12 11 11
4 3 4 5 4 4 4 4 4 3 3 2 2 1 1 1 0 2 2 2 2 2 3 3 5 3 4 3 3 1 3 1 2 1 3 3 4 4 4 5 5 4 4 4 4 5 3 4 4 5 6 6 4 2 2 4 4 5 4 4 4 7 7 7 9 12 12 11 12 13 12 13 13 13 12 11 11 11 12 12 11 12 13 12 12
4 4 4 4 5 5 5 5 4 3 3 3 2 2 1 1 2 2 2 1 1 2 1 4 2 4 4 2 4 3 4 2 2 2 2 1 3 3 3 5 5 5 4 4 4 4 4 5 5 4 5 6 5 1 4 4 3 3 3 3 3 3 3 4 11 13 14 14 12 12 12 12 14 13 13 12 12 14 14 13 13 13 13 14 13
4 4 5 4 5 5 5 5 5 4 3 5 4 3 2 1 1 2 2 3 3 2 2 2 2 4 3 3 3 1 3 5 3 2 3 1 2 2 3 5 5 6 5 5 4 4 3 2 3 2 4 3 3 3 4 2 4 5 3 4 5 3 6 6 6 8 14 17 11 10 13 14 15 13 13 14 15 15 14 14 14 14 14 14 15
5 5 4 4 5 5 5 5 6 4 4 5 5 4 4 3 3 2 3 3 4 5 3 2 1 2 2 2 3 2 3 2 4 5 4 6 2 3 2 5 8 7 5 5 5 4 2 2 4 4 4 3 2 2 2 4 4 4 4 6 7 8 7 6 8 7 10 12 11 11 13 14 18 15 13 14 14 13 16 16 16 15 15 14 15
4 4 4 4 4 5 5 6 6 5 5 5 5 5 5 5 4 4 4 4 2 1 2 2 1 1 1 4 3 2 3 4 4 4 3 4 2 3 3 2 6 9 7 6 6 5 5 5 5 5 4 3 3 2 2 1 0 1 2 3 2 8 7 6 6 7 7 8 14 17 19 17 15 18 14 13 16 16 13 16 15 15 16 15 16
4 4 4 4 4 4 5 5 5 5 4 6 5 6 5 5 4 5 4 6 4 4 4 2 2 2 2 2 2 0 3 3 5 4 7 4 5 2 4 6 8 6 7 8 9 8 7 6 8 9 8 7 6 5 4 3 2 2 3 3 2 5 6 3 4 6 7 10 11 11 12 14 14 14 16 17 15 12 18 18 19 18 19 18 17
4 4 4 3 4 4 5 5 4 4 5 5 5 5 4 5 5 5 6 6 5 6 6 5 4 5 4 3 4 4 3 3 3 4 3 4 5 4 4 3 6 9 6 6 7 7 6 7 7 7 7 8 8 8 8 8 8 9 9 7 5 4 3 2 2 2 4 10 10 8 8 9 10 12 12 12 13 12 13 17 19 19 19 19 18
4 5 4 3 4 5 5 5 5 5 5 4 5 5 4 4 5 5 5 5 4 6 5 6 6 6 6 4 5 5 5 5 3 3 4 3 5 4 4 2 5 4 0 4 7 8 8 8 7 7 6 6 6 6 7 8 9 13 8 12 12 11 10 9 9 9 7 5 2 6 6 7 7 5 8 11 10 12 15 16 15 18 17 16 19
4 5 3 2 3 5 4 5 4 4 4 4 4 4 4 5 5 6 5 5 4 5 6 5 5 6 6 4 5 5 5 2 3 4 4 4 5 5 2 1 4 2 3 2 4 4 6 7 7 7 7 7 6 6 6 6 6 10 9 8 15 14 14 14 12 10 9 7 5 5 7 7 8 9 8 6 6 10 13 12 12 11 7 9 13
4 4 2 2 3 3 4 4 4 4 3 4 4 3 4 5 5 6 5 4 5 7 6 6 6 5 4 6 5 5 5 3 4 5 4 5 5 5 4 4 3 3 2 4 4 2 5 7 6 7 7 7 6 6 7 7 7 12 11 8 11 16 16 16 15 12 11 10 7 6 5 6 7 8 8 8 7 6 5 6 8 9 9 11 14
4 2 2 4 3 4 3 5 4 4 4 4 4 4 4 5 5 5 4 4 6 6 5 6 6 6 6 6 6 5 5 5 5 5 4 5 4 3 5 8 4 5 4 3 4 8 2 2 6 8 7 6 7 6 7 7 9 13 11 7 8 16 16 17 16 16 14 13 11 10 9 8 7 6 8 9 9 8 7 7 7 7 7 9 11
2 2 2 3 4 4 4 4 3 3 2 4 3 4 4 5 5 5 5 2 6 6 5 6 6 6 6 4 6 5 4 5 5 5 5 5 5 4 4 5 8 5 2 5 5 5 6 4 4 8 7 7 7 6 8 9 10 13 11 7 7 9 16 17 17 17 17 16 16 15 14 14 12 11 9 8 9 9 7 5 6 8 9 8 9
3 2 3 3 3 4 4 4 3 3 3 2 3 3 3 4 5 5 5 4 6 6 5 6 5 5 5 6 5 5 4 4 5 5 5 5 5 5 5 5 4 7 3 4 3 3 5 5 5 6 7 7 6 6 7 8 11 11 8 8 8 8 14 18 19 18 18 19 18 17 17 16 16 16 14 11 10 10 10 8 6 6 8 8 8
3 2 3 3 3 3 4 3 3 2 2 2 2 2 2 4 4 4 4 5 6 4 4 5 5 5 5 5 5 5 3 6 6 5 6 6 6 6 6 4 4 6 4 5 3 0 3 4 4 4 5 7 6 6 6 7 12 11 9 8 8 9 14 16 17 17 17 17 17 17 17 16 16 17 16 13 11 11 10 10 9 7 7 8 9
4 3 3 3 3 3 3 2 2 3 2 2 2 2 2 3 2 4 3 4 5 5 3 4 3 4 5 6 5 5 4 6 5 5 5 6 6 6 6 6 5 6 6 4 4 1 1 4 3 2 4 5 6 5 6 6 9 10 7 7 8 11 13 12 14 15 15 15 16 16 16 15 15 16 14 14 15 14 12 11 13 11 8 7 7
3 3 3 3 3 3 2 2 2 1 2 2 3 4 3 3 3 3 2 3 4 4 2 2 3 4 6 6 4 5 4 5 5 5 5 5 5 6 6 6 5 4 5 5 6 4 0 3 2 3 5 3 6 7 6 5 6 9 7 6 7 9 8 7 11 13 13 13 14 14 14 14 14 14 14 14 14 15 15 14 13 12 11 10 8
2 1 1 3 2 1 1 0 1 1 1 1 1 3 3 3 2 3 4 4 5 3 3 3 2 4 5 6 5 4 4 6 5 5 5 5 5 6 5 6 6 3 5 5 5 3 1 1 2 3 4 3 6 7 6 5 6 6 7 6 6 7 7 6 6 9 11 11 12 12 13 13 14 13 14 14 14 14 15 14 14 13 12 11 10
4 3 3 2 2 1 1 1 1 1 1 1 2 2 4 3 3 3 4 5 4 4 3 4 4 3 5 6 4 4 2 6 5 5 5 5 5 6 4 5 5 4 2 4 3 3 3 1 3 2 3 3 4 6 6 6 6 5 7 6 5 7 6 6 6 6 10 9 10 11 12 13 13 13 13 13 13 12 13 13 12 11 10 10 11
3 4 5 4 3 2 1 1 1 1 2 2 1 1 3 3 4 4 4 5 5 6 6 6 5 4 4 4 5 4 4 6 4 4 4 5 4 5 4 3 5 4 3 2 4 4 4 1 1 2 3 3 4 5 6 4 4 3 5 6 5 5 5 6 6 5 9 8 9 10 11 11 12 12 12 12 12 12 12 12 11 11 9 9 10
5 4 4 4 5 3 2 1 0 0 1 1 1 2 3 3 5 4 4 5 5 5 6 6 6 6 6 5 5 5 4 6 5 4 3 4 4 4 4 3 4 4 3 4 4 4 2 4 3 3 3 3 3 3 4 3 4 4 5 4 2 4 5 5 6 6 7 7 7 8 9 10 11 11 12 12 12 11 11 11 11 11 10 9 10
4 5 5 2 3 3 2 2 2 3 4 3 2 2 3 3 4 3 5 5 6 6 6 6 5 7 6 7 6 6 5 6 5 5 4 5 4 5 5 3 3 3 3 3 3 3 4 4 2 1 2 2 2 1 4 5 4 2 3 4 2 3 4 4 4 5 7 5 5 7 8 8 10 11 10 11 11 10 11 11 11 11 10 9 10
3 3 4 4 5 5 5 5 5 5 5 5 4 4 4 3 3 4 4 6 6 6 6 6 6 6 7 7 6 7 7 7 7 6 5 6 5 6 6 5 4 4 5 3 3 3 5 4 3 3 2 3 3 2 5 5 6 6 5 3 0 2 5 5 4 4 4 3 3 4 6 8 10 10 10 10 10 10 10 10 10 10 10 10 11
5 5 4 4 3 4 3 3 3 4 5 4 3 3 3 3 4 4 5 7 7 6 6 6 6 6 6 6 6 7 8 7 7 7 6 5 5 6 6 6 5 5 5 4 3 4 4 3 2 2 1 1 2 4 3 4 4 4 7 9 5 1 3 6 8 4 3 2 2 4 7 7 9 9 10 11 10 10 10 10 9 10 10 10 11
3 3 3 3 3 2 1 2 3 2 2 2 3 4 3 3 5 5 5 6 8 8 6 6 6 7 8 7 7 8 8 8 7 6 7 7 5 6 4 5 5 5 5 3 3 3 3 2 2 1 1 1 2 0 2 2 3 1 4 3 7 10 9 5 4 8 4 2 5 5 5 7 7 7 7 7 9 10 10 10 10 10 10 10 11
4 4 4 4 2 2 2 2 2 2 2 4 3 2 3 5 5 6 5 6 7 7 6 6 6 6 7 7 8 8 7 6 10 9 8 8 7 6 5 5 5 6 5 3 3 3 2 2 1 0 1 2 1 3 4 3 5 4 4 3 4 5 7 8 6 3 2 5 5 5 6 7 9 7 6 6 6 8 7 9 9 11 11 11 11
4 4 3 1 1 2 2 2 2 3 3 2 2 3 5 4 2 3 5 7 6 6 6 5 5 5 7 7 7 8 11 11 10 11 11 10 7 6 7 6 5 5 4 4 2 2 2 2 2 2 4 4 2 2 2 1 2 3 3 3 6 6 5 6 5 0 2 4 9 10 7 4 7 8 6 7 6 5 6 6 7 9 12 12 12
2 1 0 2 2 2 3 3 4 4 3 3 3 6 8 3 4 6 6 5 5 5 5 5 6 5 5 4 3 3 4 3 5 8 8 7 6 7 8 5 4 5 5 4 2 2 2 0 0 1 1 4 3 0 2 2 1 3 4 4 5 6 6 8 10 5 4 9 9 9 9 6 6 8 7 7 7 6 6 7 11 13 13 11 11
3 3 3 2 3 2 2 2 3 3 0 1 3 6 6 6 6 5 5 5 4 4 4 5 5 4 4 4 4 4 4 5 6 6 7 10 11 12 11 10 10 10 5 4 4 2 3 2 2 2 2 2 2 2 1 2 4 3 3 4 4 5 7 6 5 7 6 8 9 9 9 4 5 7 7 6 7 7 7 11 13 14 13 10 11
2 1 3 3 4 4 3 4 5 4 3 2 4 5 2 2 3 3 4 4 4 4 3 4 4 4 4 3 3 3 4 10 8 7 7 9 11 14 12 12 11 10 9 9 6 3 4 3 2 2 3 1 1 1 1 2 1 5 5 4 4 4 4 5 6 7 9 7 6 7 10 8 5 6 8 8 7 6 7 9 13 15 14 11 10
1 2 3 3 3 3 2 2 2 2 3 3 5 6 3 3 0 2 1 1 0 1 1 3 4 4 4 4 4 4 4 6 6 7 7 8 7 7 6 5 5 7 8 8 8 7 4 3 3 1 1 2 1 1 2 1 3 5 4 5 4 5 5 6 7 8 8 6 5 7 8 6 5 7 8 7 6 6 6 10 14 14 14 12 10
5 5 3 2 0 1 1 1 2 0 2 6 7 7 6 3 2 2 3 4 4 4 4 4 3 0 3 3 5 6 5 6 4 7 8 8 7 6 6 5 4 4 4 4 4 3 3 3 2 2 2 2 2 2 3 2 4 5 4 6 6 6 7 6 6 6 6 4 5 4 7 6 7 7 7 7 7 7 7 9 13 14 13 11 10
5 5 5 4 3 3 3 3 2 2 4 8 8 6 3 4 5 4 4 5 5 5 6 6 5 5 5 6 7 7 7 6 7 11 9 7 7 7 6 5 4 3 3 2 3 3 3 2 2 1 1 1 2 3 4 3 3 3 4 4 4 4 4 5 6 4 5 3 5 6 6 6 5 7 9 9 8 7 7 7 11 13 12 9 9
5 5 4 4 2 3 2 1 2 0 3 6 6 4 4 6 5 4 5 6 6 7 6 6 6 6 5 6 7 7 8 7 7 11 10 9 8 7 7 5 4 4 3 2 3 2 2 1 0 1 3 3 4 4 6 6 5 4 3 3 4 3 5 8 7 6 7 4 5 4 4 8 5 6 10 8 8 9 8 7 7 8 8 9 9
5 4 4 5 4 3 3 2 1 1 1 4 4 4 5 4 5 6 5 6 6 6 6 7 6 6 6 8 7 7 8 6 8 11 10 9 8 6 6 5 3 4 3 2 1 0 0 1 3 2 1 1 1 3 4 5 5 2 1 4 5 3 6 7 9 9 9 7 5 2 5 10 8 5 9 10 10 5 5 5 6 4 5 8 12
5 4 3 5 4 4 3 2 3 3 3 4 4 3 5 6 6 5 6 6 6 5 5 6 6 6 6 6 8 7 7 6 9 9 9 8 6 5 4 5 4 4 1 1 2 3 5 6 5 6 6 7 5 4 5 8 7 5 2 3 3 3 6 8 8 9 10 4 2 3 10 10 10 9 8 11 10 8 6 4 3 7 9 7 6
Wind_Direction
162 135 107 108 117 122 146 177 80 41 63 316 349 357 37 57 66 63 67 17 352 343 354 5 355 63 28 336 229 221 184 156 170 198 207 210 227 244 231 206 200 204 201 193 193 198 204 183 197 184 177 185 171 183 179 159 158 152 155 153 151 151 149 149 148 148 145 139 140 142 130 120 118 118 119 120 112 100 97 100 101 104 104 99 102
128 113 132 133 122 103 118 146 135 123 145 169 263 316 134 115 105 81 74 59 35 352 3 340 352 78 54 35 273 237 203 183 172 183 194 207 212 238 252 213 207 199 220 190 199 203 211 195 200 205 181 195 187 186 198 170 171 164 161 159 157 157 158 153 152 153 148 151 152 144 140 136 126 123 116 109 105 106 105 105 101 94 95 98 99
114 157 146 123 111 115 125 133 124 127 176 181 196 222 175 139 154 132 112 93 64 322 359 338 341 51 42 75 340 271 226 208 179 168 182 201 197 193 278 240 206 203 211 186 209 225 217 211 201 221 204 204 203 196 198 212 194 174 162 163 164 163 164 163 162 162 160 157 153 149 143 135 128 112 110 111 111 105 103 99 99 97 100 101 103
119 115 88 102 119 115 135 121 135 131 140 155 182 200 157 146 142 130 129 113 19 353 324 333 10 3 19 55 2 310 211 197 185 180 179 180 193 182 181 251 208 191 193 190 205 260 252 204 207 226 228 207 213 206 196 195 217 180 176 168 167 167 171 170 169 168 163 161 158 151 148 145 133 131 123 117 112 112 105 106 107 102 102 101 100
88 87 91 84 116 125 123 114 132 129 139 156 150 149 134 111 40 36 65 45 38 5 356 62 57 17 14 14 24 19 170 168 189 181 186 187 184 171 165 190 202 189 180 196 197 231 291 214 216 224 227 224 228 216 207 205 210 219 232 178 168 171 176 174 174 174 169 168 165 161 162 158 152 141 135 132 128 122 120 116 111 107 106 108 105
134 112 116 105 81 109 120 121 126 128 130 139 150 169 153 104 44 39 46 46 55 359 106 67 48 53 37 350 25 14 61 152 175 197 203 213 178 163 166 167 158 160 158 189 202 218 233 255 210 222 212 215 228 236 225 216 214 216 228 184 178 176 180 177 176 175 175 176 172 171 169 163 161 158 156 152 148 144 136 127 120 123 121 112 111
167 114 108 110 107 102 123 117 141 124 118 125 142 153 83 78 40 62 50 60 58 40 83 108 92 53 28 359 11 14 41 122 153 164 175 150 150 184 165 159 154 142 150 164 198 209 220 242 229 221 211 216 221 231 237 229 215 217 229 229 198 181 189 182 180 178 177 180 180 180 177 170 171 167 165 165 168 162 156 150 143 141 129 130 122
152 117 129 139 129 152 148 146 130 114 114 127 133 162 58 68 50 63 107 62 101 57 42 100 81 69 42 41 11 14 32 29 131 162 146 137 154 158 161 155 148 148 167 165 179 196 207 212 237 210 217 224 227 232 231 239 230 222 223 239 214 197 196 193 185 184 181 181 186 187 183 178 177 173 176 175 176 174 173 169 162 156 151 142 142
149 128 136 135 122 110 122 133 123 111 107 120 107 96 115 102 55 40 116 180 120 102 60 61 53 45 30 46 31 34 30 30 46 132 118 139 154 152 160 169 168 180 181 181 185 192 201 202 210 219 214 226 219 230 235 233 231 223 223 242 223 195 204 202 191 190 190 185 186 190 187 185 181 184 181 180 180 181 181 180 174 169 163 162 158
148 148 130 124 102 105 114 124 123 111 95 86 78 84 99 128 112 65 80 127 121 115 115 100 63 56 52 41 23 36 37 15 46 86 115 142 154 169 187 190 191 194 185 184 189 196 198 210 209 210 214 212 219 221 235 239 238 231 229 231 243 237 228 218 203 201 194 193 191 191 189 189 188 193 187 184 187 187 185 187 182 181 171 178 171
136 148 145 154 133 141 145 131 124 109 83 53 53 63 95 97 108 66 67 70 103 66 145 117 108 88 61 31 24 17 6 33 36 69 79 106 135 179 167 209 208 215 206 193 198 201 210 206 205 204 209 208 212 225 231 237 247 244 234 231 237 243 236 234 228 207 204 198 201 197 193 190 190 198 195 192 191 192 192 190 186 187 182 185 182
98 94 34 81 102 115 126 113 86 78 75 28 152 131 128 119 102 66 59 60 46 70 70 93 57 48 42 35 27 0 10 5 35 41 42 51 27 17 182 229 212 219 215 201 197 212 215 218 217 211 207 214 212 212 225 230 232 245 248 244 239 236 242 233 237 218 214 214 206 203 199 194 193 199 202 199 197 196 198 194 189 194 189 192 191
106 74 83 102 72 88 93 77 69 69 219 210 53 78 107 148 131 117 105 72 55 48 66 75 61 16 347 35 33 18 360 5 355 1 5 345 6 2 359 348 335 217 220 196 200 209 213 217 223 223 223 226 230 228 223 229 237 239 251 245 241 240 235 238 235 238 236 230 227 213 205 203 197 203 207 205 204 202 201 198 194 197 194 196 198
124 133 132 123 136 126 118 125 130 169 218 227 209 258 87 132 126 119 44 101 219 258 136 145 109 176 134 318 8 348 36 26 4 13 350 350 342 329 333 338 341 354 355 200 211 197 214 232 260 329 3 21 360 347 322 291 260 251 248 260 254 243 243 234 242 241 238 240 236 232 203 211 208 208 211 215 212 212 211 207 203 202 200 199 199
126 144 142 148 144 129 138 151 166 184 207 233 46 43 33 78 118 126 108 59 354 189 101 320 123 132 139 103 313 21 339 18 323 10 348 338 335 323 325 315 340 32 21 62 279 240 241 257 44 35 40 75 344 282 287 308 334 324 299 282 270 270 262 262 259 241 238 243 242 239 211 211 215 210 213 218 218 216 219 217 214 213 209 206 203
117 137 133 139 143 144 153 156 152 164 160 147 123 91 45 72 73 92 137 154 134 31 59 108 80 115 78 96 357 118 19 300 333 319 338 333 346 340 334 338 359 12 36 41 25 24 49 85 122 134 127 132 193 209 268 254 269 279 275 296 310 320 306 265 254 268 243 224 231 246 221 213 219 215 217 220 221 221 221 221 221 222 223 218 213
101 110 119 119 125 139 141 139 137 124 134 134 142 103 83 55 69 117 147 149 172 59 31 68 132 252 116 92 61 14 237 172 119 336 351 345 357 346 351 3 9 9 30 39 50 58 78 63 49 62 66 69 20 6 249 236 254 270 292 313 296 290 284 287 279 263 262 249 226 226 230 218 217 221 222 224 224 222 222 222 221 221 225 224 222
86 97 98 101 100 109 115 116 111 95 107 112 108 102 109 135 140 135 120 113 105 97 4 54 76 130 135 154 161 189 184 173 84 221 323 253 318 323 352 3 8 16 31 37 46 59 49 63 61 66 85 88 92 138 210 199 206 245 254 292 346 335 314 306 295 292 270 255 254 241 239 233 228 221 220 220 217 217 219 220 221 221 223 227 225
85 84 89 94 102 96 98 92 82 75 86 91 80 84 109 160 153 147 151 144 139 147 136 114 104 63 72 100 105 82 145 130 203 98 119 324 356 19 21 6 23 28 17 30 34 46 42 60 62 63 77 96 100 58 10 27 76 66 299 250 259 203 236 242 219 247 274 277 271 273 241 237 247 234 223 217 220 222 218 218 222 224 226 227 228
86 76 81 94 98 89 90 91 85 75 77 74 78 61 71 57 73 85 112 141 159 164 163 139 177 123 102 64 59 44 89 125 145 169 148 135 81 356 33 33 48 34 22 23 31 26 44 25 15 3 19 31 67 79 76 60 108 159 218 198 229 250 237 246 262 260 262 268 261 242 258 246 240 243 240 227 218 220 225 224 223 226 227 227 230
56 79 71 75 79 92 86 84 87 79 80 74 63 60 64 71 51 57 72 74 93 126 135 145 147 127 55 61 45 1 29 18 58 25 96 105 64 65 53 323 49 29 16 41 51 52 34 24 14 13 11 13 15 49 87 62 317 218 197 174 265 271 277 282 299 307 280 252 237 235 236 237 236 231 228 246 240 222 228 233 233 231 233 230 228
54 55 75 74 89 89 86 90 95 94 81 92 88 75 73 74 71 82 79 86 55 82 103 114 100 76 51 131 120 9 21 18 32 52 62 50 114 46 26 56 58 10 25 45 54 51 44 35 35 28 26 23 25 33 47 35 301 259 303 340 312 278 267 295 340 311 281 260 244 241 248 247 239 235 231 225 241 235 224 228 229 228 231 231 228
76 60 61 66 81 78 79 72 62 63 72 73 74 91 88 93 86 78 71 82 77 85 84 78 85 75 62 66 85 77 106 101 29 37 105 113 80 70 45 35 94 83 32 33 51 50 48 43 35 29 23 23 26 32 38 33 25 14 2 347 310 297 317 44 90 255 167 210 248 266 275 275 268 252 246 229 225 245 253 243 234 236 236 235 231
76 82 64 51 73 64 60 56 58 63 65 66 72 79 83 84 77 79 80 73 79 80 83 87 83 81 64 64 72 78 64 92 127 90 87 118 116 120 104 102 64 60 7 21 47 47 41 38 34 33 28 27 26 24 28 30 28 29 51 45 46 40 34 33 30 21 21 25 316 291 296 306 307 300 262 257 256 237 237 246 246 247 253 251 247
91 108 94 63 86 97 85 85 78 68 75 70 62 69 81 81 84 80 80 86 92 95 85 74 80 86 91 63 77 68 66 29 97 97 62 86 116 113 43 351 131 102 11 360 27 32 44 37 30 27 26 27 24 21 22 28 30 20 30 41 38 34 30 31 30 23 18 18 5 342 335 328 324 326 329 310 265 253 256 259 250 249 240 249 251
137 129 137 88 67 85 103 95 93 101 102 100 101 95 87 86 85 87 84 92 95 90 97 99 79 79 94 85 63 70 67 62 91 84 98 76 64 110 123 40 51 81 353 27 356 65 31 36 25 29 26 24 20 18 24 24 25 22 29 31 32 31 31 31 32 29 23 22 19 3 341 330 332 335 331 328 331 335 320 293 283 271 250 236 242
128 124 81 84 91 95 103 111 121 124 123 113 102 95 99 95 92 94 84 94 89 94 86 93 86 84 71 85 90 62 60 54 70 71 89 87 103 150 135 121 66 41 56 25 33 49 327 48 22 26 23 17 20 16 18 16 23 23 31 32 31 31 33 36 34 32 32 32 30 23 11 3 354 343 329 324 322 319 315 310 298 287 266 247 247
133 96 84 105 103 104 96 103 106 107 98 112 116 113 119 108 103 104 102 124 100 90 98 89 87 85 94 93 79 71 63 69 69 76 71 90 94 78 96 110 129 113 33 55 25 51 12 30 27 30 18 16 14 14 14 24 26 21 29 31 31 33 31 35 33 32 30 28 27 26 23 17 14 6 360 343 332 326 323 314 305 300 295 283 272
130 127 122 110 109 110 112 105 104 109 110 101 108 118 117 112 112 105 105 105 98 113 115 99 106 100 81 79 99 90 60 74 69 73 87 81 74 77 70 104 142 124 128 77 24 43 32 16 34 7 12 13 14 14 19 26 23 24 29 30 31 31 27 34 33 34 33 32 30 29 29 28 24 21 16 12 4 350 344 345 336 310 297 291 283
142 141 123 118 108 98 102 93 82 94 116 96 82 64 67 74 92 96 114 110 96 79 90 113 119 103 95 79 84 80 71 73 78 81 85 88 80 74 79 81 91 108 146 119 108 221 55 15 46 6 1 16 12 19 23 23 20 27 25 29 31 25 26 32 34 35 34 33 31 30 30 30 28 25 21 13 13 9 8 357 359 355 329 314 297
143 142 131 124 133 114 114 109 97 99 97 108 102 93 87 106 76 89 50 86 104 104 81 103 125 98 91 85 81 85 86 92 86 80 74 84 87 86 77 71 64 100 109 121 111 348 156 47 356 2 356 11 20 21 22 21 17 26 26 25 30 26 30 28 32 35 34 32 31 29 27 26 24 21 17 15 16 15 8 4 8 2 3 353 331
151 144 151 158 159 155 128 124 122 108 126 123 148 152 128 137 144 118 69 78 93 105 90 62 104 105 104 95 89 105 104 97 85 82 84 74 86 85 81 82 71 76 101 96 100 90 297 79 49 335 5 4 27 30 27 18 11 19 26 25 25 25 28 23 23 33 34 33 29 29 27 25 21 19 16 14 16 16 16 14 10 7 3 3 353
97 75 44 37 37 50 96 114 149 131 131 163 167 162 157 148 134 139 140 134 128 139 132 101 60 117 123 126 131 133 131 102 111 105 92 93 84 80 85 90 86 82 101 102 104 92 5 269 357 9 353 351 43 25 29 21 13 14 22 22 23 27 26 18 13 25 30 31 29 27 26 23 19 17 14 11 12 13 13 12 12 12 12 10 4
125 119 101 90 81 73 51 24 12 324 166 197 200 168 185 175 185 162 170 160 156 165 155 163 162 149 138 132 138 124 86 118 129 117 123 115 107 93 84 101 100 91 191 120 112 119 74 276 9 3 4 353 63 24 25 10 10 8 20 18 25 28 22 11 10 13 16 26 26 25 23 20 17 12 9 6 4 6 7 5 4 7 8 11 10
99 114 119 123 123 114 84 64 27 7 9 29 59 358 306 267 213 197 188 186 180 174 183 192 184 150 139 145 164 144 131 110 108 119 121 116 107 105 110 86 96 82 42 89 121 101 73 50 226 33 20 3 49 25 17 16 3 360 18 14 16 22 17 7 6 4 3 16 20 21 19 16 13 7 3 1 357 357 357 357 354 355 358 5 10
138 140 142 153 154 157 154 157 148 166 209 175 183 171 186 227 290 273 223 203 201 199 198 193 181 177 173 158 184 169 150 132 147 138 128 116 114 105 99 62 81 79 33 30 48 128 124 56 6 44 10 19 18 23 8 12 14 13 24 357 3 30 11 6 358 356 356 7 10 14 14 11 6 0 356 353 351 348 349 348 347 346 348 351 357
174 163 176 157 135 146 169 192 215 240 231 201 197 204 192 183 193 232 260 248 224 212 206 201 192 188 184 188 181 174 165 147 167 163 155 143 132 118 115 106 99 92 54 38 31 70 112 85 32 9 349 9 355 3 12 359 357 27 14 3 349 21 8 4 342 347 335 358 353 5 4 1 357 352 347 343 341 340 339 341 340 340 341 341 345
119 118 136 143 173 200 187 183 199 221 233 219 207 220 233 223 206 204 217 254 254 231 218 212 204 201 197 200 185 172 174 174 184 180 170 149 138 131 124 128 127 116 102 79 69 58 80 102 94 48 358 14 352 3 8 1 349 353 360 14 346 13 360 352 3 348 339 346 350 1 354 349 351 341 338 333 330 329 331 332 331 331 332 334 338
139 155 167 164 194 195 209 184 211 220 238 261 270 246 259 285 274 243 224 222 241 241 227 213 204 210 215 214 199 190 192 192 177 178 158 145 150 148 148 145 146 132 122 123 124 92 80 91 94 93 45 105 23 352 3 3 346 41 1 338 343 73 30 356 336 344 333 332 351 356 343 336 330 328 325 323 320 319 323 325 324 323 324 329 333
133 145 158 191 216 177 169 211 253 291 308 307 309 311 335 282 253 246 239 234 236 242 235 219 206 209 210 206 215 210 203 191 181 170 162 164 157 140 154 147 160 135 122 126 95 87 77 61 43 84 46 349 359 5 305 345 10 59 31 357 330 334 337 348 335 322 331 342 340 339 334 328 320 310 302 302 307 310 318 322 321 320 320 326 330
157 184 193 197 198 205 202 206 258 290 286 286 306 346 322 273 255 262 247 237 236 241 238 227 217 220 223 215 214 215 208 212 185 174 183 167 157 154 172 168 156 130 116 105 115 104 102 85 8 293 73 32 16 347 353 14 15 345 334 349 310 312 314 318 324 293 312 342 333 319 328 335 323 320 320 320 319 314 314 314 313 314 319 326 328
202 198 207 191 182 221 237 249 247 258 267 266 220 197 218 223 241 268 243 234 233 237 248 251 237 222 229 226 230 225 210 208 198 182 172 178 172 156 163 164 143 115 118 123 119 119 94 53 359 339 357 358 357 360 345 322 315 320 327 338 324 317 308 291 273 190 15 1 334 326 325 335 316 312 321 320 314 310 310 313 315 313 316 322 323
203 194 53 340 301 256 251 258 261 250 261 279 256 250 258 246 203 223 229 240 228 238 237 242 248 234 229 233 266 272 246 224 164 159 160 154 122 120 115 95 94 132 140 114 140 141 140 141 116 333 324 314 316 306 308 318 335 335 328 326 316 324 339 347 330 329 112 1 336 321 316 339 330 321 320 314 314 312 308 307 310 309 312 319 319
330 12 351 294 284 281 296 290 277 275 233 328 296 295 303 290 256 249 236 235 235 228 235 235 242 237 225 208 222 213 193 164 131 124 107 100 96 87 80 75 71 63 72 134 145 133 149 146 196 233 207 242 279 349 335 347 326 320 313 314 314 324 323 321 309 306 326 356 329 319 304 323 330 315 315 316 313 310 306 306 305 305 308 317 314
28 4 314 339 321 334 343 317 311 329 349 15 317 293 282 304 288 266 261 280 290 297 292 272 255 243 232 216 183 161 155 134 130 136 125 102 93 94 90 82 69 72 74 68 63 109 149 134 184 219 208 174 321 279 228 293 282 300 312 313 316 312 303 295 295 307 312 330 318 309 311 318 329 324 317 314 311 303 299 299 301 302 304 310 304
56 35 22 1 339 331 310 271 289 339 294 302 310 307 351 62 339 227 204 109 21 34 317 265 243 222 204 186 151 125 114 128 130 124 107 103 106 98 88 81 86 74 70 76 83 79 86 128 147 171 205 153 263 232 278 309 294 292 300 296 301 296 291 285 299 294 294 306 305 309 295 308 332 324 311 308 308 301 298 298 295 294 297 302 295
104 118 130 150 96 11 18 95 141 301 287 346 339 342 2 30 103 131 72 80 78 54 29 22 12 48 138 117 100 96 91 91 109 125 116 116 109 103 96 89 83 75 77 71 58 83 82 86 120 149 155 187 240 264 267 267 251 259 265 274 283 283 285 288 272 258 278 269 282 300 291 316 316 310 306 309 308 302 298 296 291 291 294 295 288
63 74 56 43 35 37 19 36 51 357 327 346 347 359 42 116 101 74 73 69 65 53 37 15 26 43 65 88 95 90 86 85 104 114 118 119 109 108 103 103 95 81 69 40 51 70 86 128 143 157 174 218 237 253 263 267 265 259 268 268 278 269 286 296 299 303 284 277 273 281 279 299 305 296 304 308 303 295 294 287 288 287 295 298 291
97 93 105 98 83 95 81 76 114 326 313 335 353 40 99 115 88 81 78 71 56 55 38 22 32 46 55 85 102 107 98 90 108 110 114 111 100 101 105 109 105 99 80 38 43 84 94 102 281 351 301 296 281 273 275 271 263 276 264 278 285 309 315 310 306 310 305 309 282 260 274 302 303 298 301 300 297 297 292 283 278 291 303 293 290
108 123 124 99 75 77 106 126 224 157 309 338 14 75 99 102 115 110 97 88 69 61 49 32 30 39 64 87 99 96 101 101 114 107 110 105 104 114 124 124 105 83 69 13 8 170 191 106 116 356 260 265 296 301 293 302 307 278 235 298 307 318 305 305 303 311 310 305 274 249 289 301 310 299 298 306 302 259 258 265 277 297 296 301 300
124 143 121 105 77 42 25 48 55 67 3 1 22 86 109 117 113 116 110 103 94 68 77 59 32 41 37 44 70 85 94 110 105 103 104 105 109 117 113 97 96 91 72 57 41 7 2 2 352 4 349 350 350 339 325 320 310 305 258 266 283 274 298 306 305 313 313 310 262 329 309 308 315 311 315 316 307 303 278 270 291 308 297 285 281